www.pogodaiklimat.ru

Погода и климат >> Архив погоды >> Таиланд >> Satun


ПОГОДА в Satun

  • Прогноз погоды в Satun
  • Монитор погоды в Satun
  • Климат города

АРХИВ ПОГОДЫ в Satun

Время (UTC), дата Ветер
(напр.,м/с)
 
Видим.   Явления Облачность Т
(С)
Тd
(С)
f
(%)
Тe
(С)
Тes
(С)
Комфортность P
(гПа)
Po
(гПа)
Тmin
(С)
Tmax
(С)
R
(мм)
R24
(мм)
S
(см)
06 17.08 З 7 10 км 8/3 600 м
[Cu med, cong Ac lent Cs]
+31.8 +23.4 61 +43 +45 опасность
перегрева
1007.9 1007.2
09 17.08 ЮЗ 3 10 км 8/3 600 м
[Cu med, cong Ac lent Cs]
+31.5 +24.4 66 +44 +47 опасность
перегрева
1006.0 1005.3
12 17.08 З 4 10 км 9/4 600 м
[Cu Sc Ac lent Cs]
+28.9 +23.5 73 +39 +39 очень
душно
1007.5 1006.8 +32.4
15 17.08 штиль 0 10 км 8/3 600 м
[Cu med, cong Ac lent Cs]
+27.5 +25.4 88 +40 +40 очень
душно
1009.5 1008.8
18 17.08 штиль 0 10 км 9/4 600 м
[Cu med, cong Ac lent Cs]
+26.6 +25.2 92 +38 +38 очень
душно
1008.4 1007.7
21 17.08 штиль 0 10 км в посл. час дождь 10/4 600 м
[Cu Sc Ac lent Cs]
+25.5 +24.2 93 +35 +35 очень
душно
1007.6 1006.9 6
00 18.08 штиль 0 10 км в посл. час дождь 10/4 600 м
[Cu Sc Ac lent Cs]
+25.6 +24.7 95 +36 +36 очень
душно
1008.5 1007.8 +24.6 2
03 18.08 штиль 0 10 км в посл. час дождь 8/3 600 м
[Cu med, cong Ac lent Cs]
+27.9 +25.5 87 +41 +50 опасность
перегрева
1010.0 1009.3 9
06 18.08 штиль 0 10 км в посл. час дождь 8/3 600 м
[Cu med, cong Ac lent Cs]
+27.9 +25.5 87 +41 +54 опасность
перегрева
1010.0 1009.3 9
09 18.08 З 6 10 км 8/3 600 м
[Cu med, cong Ac lent Cs]
+31.9 +22.6 58 +42 +43 опасность
перегрева
1007.0 1006.3
12 18.08 штиль 0 10 км 8/3 600 м
[Cu med, cong Ac lent Cs]
+29.4 +24.8 76 +42 +42 опасность
перегрева
1007.9 1007.2 +32.1
15 18.08 штиль 0 10 км 8/3 600 м
[Cu med, cong Ac lent Cs]
+27.4 +24.8 86 +39 +39 очень
душно
1009.9 1009.2
18 18.08 штиль 0 10 км 8/3 600 м
[Cu med, cong Ac lent Cs]
+26.0 +24.6 92 +37 +37 очень
душно
1009.3 1008.6
21 18.08 штиль 0 10 км 6/1 600 м
[Cu med, cong Cs]
+25.0 +23.8 93 +34 +34 очень
душно
1008.7 1008.0
00 19.08 штиль 0 10 км 8/3 600 м
[Cu med, cong Ac lent Cs]
+24.5 +23.6 95 +33 +34 очень
душно
1009.6 1008.9 +24.0 9
03 19.08 штиль 0 10 км 8/3 600 м
[Cu med, cong Cs]
+30.8 +25.4 73 +45 +57 опасность
перегрева
1010.2 1009.5
06 19.08 штиль 0 10 км 8/3 600 м
[Cu med, cong Cs]
+33.8 +24.1 57 +46 +63 опасность
перегрева
1007.9 1007.3
09 19.08 штиль 0 10 км 8/3 600 м
[Cu med, cong Cs]
+33.6 +23.7 56 +45 +51 опасность
перегрева
1006.6 1006.0
12 19.08 штиль 0 10 км 8/3 600 м
[Cu med, cong Cs]
+29.3 +24.1 74 +41 +41 опасность
перегрева
1008.4 1007.7 +34.0
15 19.08 штиль 0 10 км 8/3 600 м
[Cu med, cong Cs]
+27.0 +25.3 90 +39 +39 очень
душно
1009.4 1008.7
18 19.08 штиль 0 10 км 6/3 600 м
[Cu med, cong Cs]
+25.0 +23.8 93 +34 +34 очень
душно
1008.7 1008.0
21 19.08 штиль 0 10 км 6/3 600 м
[Cu med, cong Cs]
+24.7 +24.0 96 +34 +34 очень
душно
1007.3 1006.6
00 20.08 штиль 0 10 км 6/3 600 м
[Cu med, cong Cs]
+24.8 +23.6 93 +34 +34 очень
душно
1009.3 1008.6 +24.1
03 20.08 штиль 0 10 км 8/3 600 м
[Cu med, cong Cs]
+30.7 +24.9 71 +44 +56 опасность
перегрева
1010.0 1009.3
06 20.08 З 4 10 км 8/3 600 м
[Cu med, cong Cs]
+31.4 +24.3 66 +44 +52 опасность
перегрева
1008.2 1007.5
09 20.08 штиль 0 10 км 6/3 600 м
[Cu med, cong Cs]
+31.9 +24.5 65 +45 +51 опасность
перегрева
1006.6 1005.9
12 20.08 штиль 0 10 км 4/1 600 м
[Cu med, cong Ac trans Cs]
+30.3 +25.0 73 +43 +43 опасность
перегрева
1007.0 1006.3 +32.8
15 20.08 штиль 0 10 км 5/1 600 м
[Cu med, cong Cs]
+27.4 +25.0 87 +39 +39 очень
душно
1009.0 1008.3
18 20.08 штиль 0 10 км 5/1 600 м
[Cu med, cong Cs]
+25.5 +23.9 91 +35 +35 очень
душно
1008.4 1007.7
21 20.08 штиль 0 10 км 5/1 600 м
[Cu med, cong Cs]
+24.4 +22.8 91 +32 +32 очень
душно
1007.1 1006.4
00 21.08 штиль 0 8000 м дымка 6/1 600 м
[Cu med, cong Cs]
+24.6 +23.4 93 +33 +34 очень
душно
1007.6 1006.9 +23.8
03 21.08 штиль 0 10 км 8/3 600 м
[Cu med, cong Cs]
+30.8 +25.1 72 +45 +57 опасность
перегрева
1009.7 1009.0
06 21.08 штиль 0 10 км в посл. час дождь 8/3 600 м
[Cu med, cong Ac lent Cs]
+29.5 +23.9 72 +41 +54 опасность
перегрева
1008.5 1007.8 0.0
09 21.08 штиль 0 10 км гроза, ливневой дождь 9/3 600 м
[Cu med, cong Ac lent Cs]
+25.9 +23.7 88 +35 +39 очень
душно
1006.5 1005.8 8
12 21.08 штиль 0 10 км {гроза} 9/3 600 м
[Cu med, cong Ac lent Cs]
+26.9 +24.9 89 +39 +39 очень
душно
1006.9 1006.2 +32.0 8
15 21.08 штиль 0 10 км 8/3 600 м
[Cu med, cong Ac lent Cs]
+25.8 +24.6 93 +36 +36 очень
душно
1008.6 1007.9
18 21.08 штиль 0 10 км 8/3 600 м
[Cu med, cong Ac lent Cs]
+25.7 +24.8 95 +36 +36 очень
душно
1008.2 1007.5
21 21.08 штиль 0 10 км 8/3 600 м
[Cu med, cong Ac lent Cs]
+25.3 +24.6 96 +36 +36 очень
душно
1008.0 1007.3
00 22.08 штиль 0 10 км 8/3 600 м
[Cu med, cong Ac lent Cs]
+25.0 +24.0 94 +34 +35 очень
душно
1007.3 1006.6 +24.5 8
03 22.08 штиль 0 10 км 8/4 600 м
[Cu med, cong Ac lent Cs]
+30.3 +24.6 72 +43 +51 опасность
перегрева
1009.2 1008.6
06 22.08 З 3 10 км 8/4 600 м
[Cu med, cong Ac lent Cs]
+32.5 +25.3 66 +47 +54 опасность
перегрева
1007.4 1006.8
09 22.08 З 4 10 км {дождь} 9/4 600 м
[Cu Sc Ac lent Cs]
+31.0 +25.5 73 +46 +47 опасность
перегрева
1006.3 1005.6 0.4
12 22.08 штиль 0 10 км {дождь} 8/3 600 м
[Cu med, cong Ac lent Cs]
+29.4 +25.6 80 +43 +43 опасность
перегрева
1006.9 1006.3 +33.0 0.4
15 22.08 штиль 0 10 км 9/4 600 м
[Cu med, cong Ac lent Cs]
+27.6 +25.5 88 +40 +40 очень
душно
1009.2 1008.5
18 22.08 штиль 0 10 км 8/3 600 м
[Cu med, cong Ac lent Cs]
+26.3 +25.0 93 +38 +38 очень
душно
1009.6 1009.0
21 22.08 штиль 0 10 км 8/3 600 м
[Cu med, cong Ac lent Cs]
+25.5 +24.2 93 +35 +35 очень
душно
1007.4 1006.7
00 23.08 штиль 0 10 км 8/3 600 м
[Cu med, cong Ac lent Cs]
+25.1 +24.2 95 +35 +35 очень
душно
1008.3 1007.6 +24.4 0.4
03 23.08 штиль 0 10 км 8/3 600 м
[Cu med, cong Cs]
+31.7 +24.1 64 +44 +56 опасность
перегрева
1009.0 1008.3
06 23.08 ЮЗ 6 10 км 8/3 600 м
[Cu med, cong Cs]
+32.7 +24.6 62 +45 +50 опасность
перегрева
1007.6 1006.9
09 23.08 Ю 3 10 км в посл. час дождь 9/4 600 м
[Cu med, cong Cs]
+29.7 +23.3 69 +40 +43 очень
душно
1006.7 1006.0 0.1
12 23.08 штиль 0 10 км 8/3 600 м
[Cu med, cong Cs]
+28.0 +24.7 82 +40 +40 очень
душно
1007.8 1007.1 +33.2 0.1
15 23.08 штиль 0 10 км 5/1 600 м
[Cu med, cong Cs]
+26.7 +24.8 89 +38 +38 очень
душно
1009.7 1009.0
18 23.08 штиль 0 10 км 5/1 600 м
[Cu med, cong Cs]
+25.4 +23.6 90 +35 +35 очень
душно
1008.4 1007.8
21 23.08 штиль 0 10 км 5/1 600 м
[Cu med, cong Cs]
+24.6 +23.0 91 +33 +33 очень
душно
1007.3 1006.6
00 24.08 штиль 0 10 км дымка 6/1 600 м
[Cu med, cong Cs]
+24.7 +23.8 95 +34 +35 очень
душно
1007.8 1007.1 +23.3 0.1
03 24.08 штиль 0 10 км 8/3 600 м
[Cu med, cong Cs]
+31.9 +25.6 69 +46 +59 опасность
перегрева
1009.5 1008.8

 

Местоположение метеостанции Satun (Таиланд): широта 6.65 долгота 100.08 высота над уровнем моря 6 м.

В архиве по умолчанию представлена погода в Satun за последнюю неделю. Архивные данные за месяц целиком и за предыдущие месяцы, начиная с января 2011 года, Вы можете получить, выбрав интересующий диапазон дат из раскрывающегося списка и нажав кнопку "Ввод!".

Внимание! Время в таблицах - всемирное. Для получения местного времени необходимо прибавить поправку, которая в Satun равна 7 ч.

Смотрите также архив погоды в соседних городах и на ближайших метеорологических станциях:

Погода в Sa-dao (Таиланд) (39 км)
Погода в Hat Yai (Таиланд) (49 км)
Погода в Langkawi (Малайзия) (53 км)
Погода в Alor Star (Малайзия) (61 км)
Погода в Songkhla (Таиланд) (85 км)
Погода в Phatthalung Agromet (Таиланд) (104 км)
Погода в Trang (Таиланд) (109 км)
Погода в Pattani (Таиланд) (119 км)
Погода в Yala Agromet (Таиланд) (133 км)
Погода в Butterworth Air Base (Малайзия) (135 км)

Пояснения к столбцам:

Ветер - указаны скорость ветра в м/с - средняя за 10 мин, порывы в срок и между сроками (в фигурных скобках) и направление, откуда дует ветер: С - северный, СВ - северо-восточный, В - восточный, ЮВ - юго-восточный, Ю - южный, ЮЗ - юго-западный, З - западный, СЗ - северо-западный.
Видимость - горизонтальная дальность видимости в метрах или километрах. При видимости от 1 до 10 км при отсутствии осадков обычно наблюдается дымка, при ухудшении видимости до 1 км и менее - туман. В сухую погоду видимость может ухудшаться дымом, пылью или мглою.
Явления - указаны атмосферные явления, наблюдавшиеся в срок или в последний час перед сроком; фигурными скобками обозначены явления, наблюдавшиеся между сроками (за 1-3 часа до срока); квадратными скобками обозначены град или гололедные отложения с указанием их диаметра в мм.
Облачность - указаны через наклонную черту общая и нижняя облачность в баллах и высота нижней границы облаков в метрах; квадратными скобками обозначены формы облаков: Ci - перистые, Cs - перисто-слоистые, Cc - перисто-кучевые, Ac - высококучевые, As - высокослоистые, Sc - слоисто-кучевые, Ns - слоисто-дождевые, Cu - кучевые, Cb - кучево-дождевые. Подробнее классификацию облаков см. в Атласе облаков (PDF).
T - Температура воздуха - температура, измеренная на высоте 2 м над землей.
Td - Температура точки росы - температура, при понижении до которой содержащийся в воздухе водяной пар достигнет насыщения.
f - Относительная влажность воздуха - влажноcть воздуха, измеренная на высоте 2 м над землей.
Te - Эффективная температура - температура, которую ощущает одетый по сезону человек в тени. Характеристика душности погоды. При расчете учитывается влияние влажности воздуха и скорости ветра на теплоощущения человека.
Tes - Эффективная температура на солнце - температура, которую ощущает человек, с поправкой на солнечный нагрев. Характеристика знойности погоды. Зависит от высоты солнца над горизонтом, облачности и скорости ветра. Ночью, в пасмурную погоду, а также при ветре 12 м/с и более поправка равна нулю.
P - Атмосферное давление - приведенное к уровню моря атмосферное давление.
Po - Атмосферное давление - измеренное на уровне метеостанции атмосферное давление.
Tmin - Минимальная температура - минимум температуры воздуха на высоте 2 м над землей.
Tmax - Максимальная температура - максимум температуры воздуха на высоте 2 м над землей.
R - Количество осадков - Количество выпавших осадков за период времени, мм. При наведении курсора мыши на число - период времени, за который выпало указанное количество осадков.
R24 - Количество осадков - Количество выпавших осадков за 24 часа, мм.
S - Снежный покров - Высота снежного покрова, см. При наведении курсора мыши на число - состояние снежного покрова и степень покрытия местности в баллах.